Location: Kalchst�tten
(46.7738°N, 7.3142°E)
Time: 00:02:23
(UTC+00:00)

Daily predictions for brighter satellites

Satellite Brightness Start Highest point End
(mag) Time Altitude Azimuth Time Altitude Azimuth Time Altitude Azimuth
CENTAUR R/B 4.3 01:23:56 36° ENE 01:23:56 36° ENE 01:29:47 10° ESE
ATLAS 2AS CENTAUR R/B 3.9 01:50:45 43° E 01:50:45 43° E 01:56:58 10° NE
Cosmos 2333 Rocket 4.3 01:57:56 22° NE 01:57:56 22° NE 01:59:57 10° NE
Cosmos 2219 Rocket 4.2 02:06:06 23° NE 02:06:06 23° NE 02:08:08 10° NNE
Cosmos 2237 Rocket 3.8 02:20:04 31° E 02:20:04 31° E 02:23:58 10° NE
ADEOS II 4.4 02:13:56 10° NNE 02:15:06 17° NNE 02:15:06 17° NNE
USA 267 4.1 02:16:54 10° ENE 02:22:21 43° ESE 02:22:21 43° ESE
Cosmos 2360 Rocket 4.2 02:41:26 18° N 02:41:26 18° N 02:43:11 10° N
NOSS 3-2 (C) 4.4 02:44:12 54° SSE 02:44:12 54° SSE 02:50:30 10° SSE
IDEFIX/ARIANE 42P 3.9 02:38:20 10° NNE 02:43:08 35° E 02:43:37 35° ESE
COSMOS 2428 4.0 02:47:56 33° N 02:47:56 33° N 02:51:04 10° NNE
COSMOS 2455 4.2 02:57:25 29° N 02:57:25 29° N 03:01:01 10° NNE
USA 234 3.5 02:51:30 10° ESE 02:57:56 63° NNE 02:59:22 51° NNW
NOSS 3-4 (A) 3.5 03:00:00 74° ESE 03:00:00 74° ESE 03:06:10 10° NE
NOSS 3-4 (C) 3.5 03:00:03 73° ESE 03:00:03 73° ESE 03:06:17 10° NE
Cosmos 44 Rocket 4.3 03:03:22 41° NE 03:03:22 41° NE 03:07:33 10° ESE
ATLAS 3B R/B 2.5 03:06:13 79° S 03:06:13 79° S 03:12:45 10° SSE
Gblst 52 Del rocket 4.3 03:07:22 67° NE 03:07:22 67° NE 03:12:42 10° ESE
Cosmos 614 Rocket 4.3 03:12:10 64° NE 03:12:10 64° NE 03:16:36 10° NNE
CENTAUR R/B 3.0 03:11:14 55° WNW 03:13:08 71° SW 03:21:45 10° SSE
SL-16 R/B 3.5 03:11:16 17° SSE 03:15:03 37° ESE 03:20:13 10° NE
H-2A R/B 3.9 03:13:45 10° NNE 03:17:44 38° E 03:19:16 28° SE
Cosmos 1140 Rocket 3.8 03:17:25 59° SE 03:17:56 63° ESE 03:23:02 10° NNE
Cosmos 2074 Rocket 4.0 03:15:53 37° S 03:18:33 79° E 03:24:47 10° N
USA 32 3.9 03:26:06 79° NNW 03:26:06 79° NNW 03:31:05 10° N
Cosmos 2297 4.0 03:23:21 16° NNW 03:28:02 66° ENE 03:33:44 10° SE
ADEOS 3.4 03:30:25 10° NNE 03:35:41 87° WNW 03:36:55 54° SSW
CZ-2C R/B 3.6 03:30:47 10° NNE 03:35:45 44° E 03:40:38 10° S
Cosmos 1606 Rocket 3.7 03:31:41 10° N 03:36:01 71° E 03:40:19 10° SSE
MSX 4.0 03:32:02 10° NNE 03:37:46 71° ESE 03:43:28 10° S
BREEZE-M DEB (TANK) 2.7 03:38:43 60° NNE 03:38:43 60° NNE 03:40:59 10° ENE
Cosmos 2333 Rocket 3.4 03:39:58 28° NNW 03:39:58 28° NNW 03:43:57 10° N
ATLAS 2AS CENTAUR R/B 3.2 03:38:13 45° W 03:40:24 57° NW 03:48:16 10° NE
RESURS DK-1 2.5 03:43:35 67° SSE 03:43:53 70° ESE 03:48:02 10° NNE
Cosmos 2219 Rocket 3.4 03:47:50 25° NNW 03:47:50 25° NNW 03:51:39 10° N
Meteor 1-4 Rocket 3.8 03:50:31 31° N 03:50:31 31° N 03:52:25 10° N
Cosmos 1023 Rocket 4.3 03:49:30 57° WSW 03:50:24 69° WNW 03:55:32 10° NNE
GP-B 4.2 03:49:04 10° SSE 03:53:16 45° E 03:57:31 10° N
In-Cosmos 22 4.5 03:49:46 10° S 03:55:05 66° E 04:00:34 10° NNE
ADEOS II 4.1 03:55:04 10° NNW 03:56:02 13° NNW 03:56:02 13° NNW
Cosmos 2228 2.8 03:55:43 10° NNW 03:59:59 76° W 04:04:12 10° S
Cosmos 1726 2.3 03:59:04 10° N 04:02:44 68° E 04:06:24 10° SSE
Cosmos 2237 Rocket 2.6 04:01:56 40° W 04:02:50 43° NW 04:08:16 10° NNE
USA 267 3.3 03:59:51 10° NE 04:06:21 68° NNW 04:09:42 31° WSW
Cosmos 2344 4.5 03:57:25 10° NW 04:07:08 86° NE 04:20:44 10° SE
Cosmos 1763 Rocket 4.4 04:02:30 10° NNW 04:07:32 49° ENE 04:12:28 10° SE
NOSS 0 Rocket 4.5 04:06:32 34° WNW 04:07:50 37° NW 04:13:35 10° NNE
Cosmos 1437 Rocket 2.9 04:05:48 10° S 04:09:32 68° E 04:13:19 10° NNE
COSMO-SKYMED 1 3.8 04:07:38 10° SE 04:11:45 44° ENE 04:15:53 10° N
PSLV R/B 4.3 04:08:03 10° N 04:11:14 33° NW 04:11:14 33° NW
CZ-4B R/B 4.0 04:09:11 10° NNE 04:13:15 77° ESE 04:17:28 10° S
Okean 1-7 Rocket 3.5 04:10:24 10° SSW 04:14:51 79° W 04:19:24 10° N
Cosmos 2369 Rocket 3.1 04:09:41 10° NNW 04:15:06 47° ENE 04:20:29 10° SE
Cosmos 1726 Rocket 3.5 04:11:02 10° NNW 04:15:15 55° W 04:19:28 10° S
Cosmos 1908 3.5 04:13:19 10° N 04:17:09 66° E 04:20:56 10° SSE
Cosmos 1980 4.5 04:20:05 28° WNW 04:21:20 31° NW 04:26:20 10° NNE
Meteor 2-5 Rocket 4.1 04:15:58 10° S 04:21:46 70° E 04:27:40 10° NNE
Cosmos 676 Rocket 4.2 04:19:09 25° SW 04:21:57 50° WNW 04:27:03 10° NNE
IDEFIX/ARIANE 42P 3.2 04:17:59 10° N 04:22:42 35° WNW 04:24:24 28° WSW
PSLV R/B 4.4 04:20:34 10° NNE 04:24:13 54° E 04:27:51 10° S
PSLV R/B 4.4 04:24:33 22° S 04:24:42 22° S 04:26:52 10° ESE
Cosmos 2154 Rocket 4.0 04:21:40 10° SSW 04:27:43 55° WNW 04:33:50 10° N
Cosmos 407 Rocket 4.4 04:27:15 25° WNW 04:27:59 26° NW 04:32:17 10° N
COSMOS 2428 4.4 04:29:57 15° NW 04:30:50 15° NW 04:34:07 10° N
Cosmos 1707 4.3 04:33:58 20° NW 04:33:58 20° NW 04:35:59 10° NNW
Cosmos 1943 Rocket 2.5 04:27:46 10° NNW 04:33:29 72° ENE 04:39:08 10° SSE
Cosmos 1674 2.5 04:32:11 10° SSW 04:35:53 81° W 04:39:38 10° N
Meteor 1-31 Rocket 2.8 04:35:59 10° N 04:39:41 51° WNW 04:43:22 10° SSW
USA 234 3.5 04:34:45 10° SSE 04:41:04 50° SW 04:46:43 13° WNW
Nadezhda 3 Rocket 4.4 04:36:30 10° NNW 04:42:21 40° W 04:48:09 10° SSW
SL-8 R/B 4.4 04:38:19 12° SW 04:42:33 51° SSE 04:47:13 10° ENE
Cosmos 44 Rocket 4.0 04:42:09 20° WNW 04:44:31 31° WSW 04:48:36 10° S
Cosmos 2058 Rocket 3.4 04:40:56 10° NNW 04:45:07 41° W 04:49:17 10° SSW
Okean O Rocket 2.7 04:45:19 10° NNE 04:49:36 49° E 04:53:50 10° S
Cosmos 1626 3.7 04:46:35 10° SSE 04:50:03 39° E 04:53:33 10° NNE
NOSS 3-4 (A) 4.4 04:47:27 17° W 04:51:17 32° NNW 04:57:07 10° NNE
NOSS 3-4 (C) 4.4 04:47:31 17° W 04:51:23 32° NNW 04:57:14 10° NNE
H-2A R/B 3.6 04:49:39 10° NNW 04:53:02 24° WNW 04:55:50 13° WSW
Cosmos 1484 Rocket 2.6 04:51:01 10° N 04:54:51 77° WNW 04:58:42 10° SSW
ATLAS 3B R/B 4.0 04:53:35 15° W 04:55:37 17° WSW 04:59:50 10° SW
CZ-4B R/B 3.4 04:54:30 10° N 04:58:07 34° WNW 05:01:33 10° SW
Cosmos 1603 4.0 04:53:24 10° SSW 04:58:59 72° ESE 05:04:39 10° NNE
SL-16 R/B 2.7 04:53:49 10° WSW 04:59:07 40° NW 05:04:29 10° NNE
Cosmos 2341 Rocket 4.1 04:53:15 10° SSW 04:59:18 53° WNW 05:05:24 10° N
SKYMED 2 3.6 04:55:28 10° S 04:59:45 61° W 05:04:05 10° NNW
Cosmos 1850 Rocket 4.0 04:55:47 10° SW 05:00:52 57° WNW 05:06:00 10° NNE
Cosmos 2263 4.4 04:55:47 10° NNW 05:01:31 76° ENE 05:07:15 10° SSE
CENTAUR R/B 4.4 04:58:32 12° WNW 05:02:52 19° WSW 05:08:17 10° SW
Cosmos 1300 2.9 05:00:49 10° N 05:04:40 76° E 05:08:27 10° SSE
Meteor 1-24 Rocket 3.8 05:03:13 10° SSW 05:09:00 70° WNW 05:15:01 10° N
Cosmos 1959 Rocket 4.4 05:04:41 10° SSW 05:10:47 72° W 05:17:00 10° N
Cosmos 468 Rocket 4.5 05:08:51 10° NW 05:13:34 37° WSW 05:18:14 10° SSW
CZ-2C R/B 3.4 05:09:23 10° N 05:13:47 28° WNW 05:18:06 10° WSW
SL-8 Rocket 4.0 05:08:01 10° SSW 05:14:03 56° WNW 05:20:08 10° N
Meteor PRIRODA 4.4 05:11:16 10° N 05:14:37 31° WNW 05:17:55 10° SW
USA 116 3.5 05:15:37 10° S 05:19:04 49° WSW 05:22:17 10° NNW
RESURS DK-1 4.1 05:19:43 10° W 05:22:24 16° NW 05:25:05 10° N
Cosmos 2366 rocket 4.1 05:18:38 10° SSW 05:24:54 60° WNW 05:31:12 10° N
Cosmos 1943 3.3 05:24:14 10° SSW 05:29:56 90° ESE 05:35:40 10° NNE
Cosmos 841 Rocket 3.6 05:25:20 10° NNW 05:30:31 59° WSW 05:35:39 10° S
GP-B 4.4 05:27:38 10° SW 05:30:50 19° W 05:34:03 10° NNW
ATLAS 2AS CENTAUR R/B 4.2 05:26:36 10° WNW 05:33:12 27° NNW 05:39:39 10° NE
